IST,Max TemperatureF,Mean TemperatureF,Min TemperatureF,Max Dew PointF,MeanDew PointF,Min DewpointF,Max Humidity, Mean Humidity, Min Humidity, Max Sea Level PressureIn, Mean Sea Level PressureIn, Min Sea Level PressureIn, Max VisibilityMiles, Mean VisibilityMiles, Min VisibilityMiles, Max Wind SpeedMPH, Mean Wind SpeedMPH, Max Gust SpeedMPH,PrecipitationIn, CloudCover, Events, WindDirDegrees
2013-3-1,73,62,50,55,50,41,100,69,31,30.09,30.03,29.98,3,3,1,17,10,23,0.00,1,,286
2013-3-2,77,64,51,57,52,48,100,70,36,30.06,30.01,29.98,4,3,2,17,11,,0.00,,,281
2013-3-3,80,66,53,64,56,52,100,71,39,30.06,30.01,29.95,3,2,1,14,6,,0.00,,,273
2013-3-4,84,70,55,64,54,41,100,67,23,30.06,30.00,29.95,3,2,1,8,2,,0.00,2,,294
2013-3-5,84,70,57,68,56,45,100,64,25,30.09,30.02,29.98,3,2,1,10,2,,0.00,,,303
2013-3-6,84,70,57,68,58,45,100,76,25,30.06,30.01,29.98,4,2,0,12,4,,0.00,,Fog,271
2013-3-7,86,72,59,63,58,46,100,69,27,30.04,30.00,29.95,3,2,1,13,5,21,0.00,,,274
2013-3-8,87,73,59,64,55,41,100,63,20,30.06,29.99,29.95,3,2,1,8,2,,0.00,,,285
2013-3-9,89,74,60,64,52,41,94,52,18,29.95,29.86,29.77,3,2,1,9,2,,0.00,,,198
2013-3-10,87,78,68,59,52,46,68,43,29,29.83,29.77,29.71,3,2,1,12,7,,0.00,2,,192
2013-3-11,87,74,62,73,61,50,94,65,27,29.92,29.86,29.83,2,1,1,10,2,,0.00,1,,282
2013-3-12,87,74,62,72,62,50,100,70,27,29.92,29.87,29.83,2,1,0,9,4,,0.00,3,Fog,286
2013-3-13,89,76,62,66,57,48,100,58,24,29.95,29.87,29.80,2,1,0,9,2,,0.00,1,Fog,135
2013-3-14,82,74,66,64,57,50,83,58,36,29.98,29.91,29.83,3,3,1,13,9,,0.00,3,,23
2013-3-15,82,70,57,59,53,41,94,55,23,30.09,30.02,29.98,3,2,1,13,6,,0.00,1,,332
2013-3-16,82,70,57,61,55,50,100,58,32,30.09,30.01,29.95,2,2,0,8,5,,0.00,2,Fog,323
2013-3-17,84,73,62,64,58,50,100,63,30,30.09,30.00,29.92,3,2,1,14,4,21,0.00,,Fog,318
2013-3-18,84,72,59,66,59,54,100,68,35,29.95,29.86,29.80,4,2,0,18,8,25,0.00,,Fog,273
2013-3-19,87,74,60,68,63,57,100,70,35,29.86,29.81,29.77,3,2,0,16,8,23,0.00,,Fog,282
2013-3-20,93,78,64,75,59,43,100,62,17,29.92,29.84,29.80,3,1,0,10,2,,0.00,5,Fog-Thunderstorm,330
2013-3-21,89,76,64,72,57,46,100,53,22,29.92,29.83,29.77,3,2,1,15,6,23,0.00,3,Fog,288
2013-3-22,87,74,60,64,55,45,100,51,27,29.80,29.75,29.71,3,2,0,14,8,,0.00,3,Fog,292
2013-3-23,91,80,69,61,55,45,68,44,20,29.83,29.78,29.74,3,2,1,14,5,,0.00,3,,117
2013-3-24,93,82,71,63,56,48,65,43,21,29.92,29.84,29.77,3,2,2,14,9,,0.00,3,,61
2013-3-25,82,72,62,64,56,45,100,58,26,29.95,29.88,29.83,3,2,0,14,10,,0.00,2,Fog,302
2013-3-26,82,71,60,63,57,52,94,59,37,29.86,29.81,29.74,3,2,0,14,10,,0.00,2,Fog,300
2013-3-27,84,72,60,61,55,46,94,58,27,29.86,29.81,29.77,3,2,0,13,4,,0.00,5,Fog,278
2013-3-28,89,76,62,68,60,48,94,66,24,29.89,29.82,29.74,2,2,0,14,3,25,0.00,3,Fog-Rain-Thunderstorm,39
2013-3-29,82,74,66,63,60,55,88,67,47,29.86,29.82,29.80,2,2,1,14,5,23,0.00,3,Thunderstorm,56
2013-3-30,84,72,60,64,58,54,100,63,35,29.86,29.81,29.77,3,2,0,14,4,,0.00,3,Fog,301
2013-3-31,87,76,64,70,59,52,100,60,31,29.86,29.81,29.77,3,2,0,12,6,,0.00,1,Fog,282